FENGYUN 1C DEB, 31725

Orbit data source: Space-Track

FENGYUN 1C DEB, 31725 is space debris in SSO originally from a launch on Mon, 10 May 1999 UTC launched from the Taiyaun Space Center, China (TSC). Fengyun 1C debris stems from the Chinese weather satellite Fengyun-1C, which was intentionally destroyed by a Chinese anti-satellite missile in 2007. This event dramatically increased the amount of space debris, with thousands of trackable fragments posing hazards to satellites and human spaceflight. The Fengyun 1C debris cloud has become a focal point in discussions about space sustainability and the need for international regulations to prevent the creation of new debris.

Loading next visibility...
Identifier
31725, 1999-025CDY
Orbit
SSO
Country
Flag of CNCN / PRC
Related business
Manufacturer
Unknown
Mission
Spacecraft
Bus & Motor
Unknown
Mass
Unknown
Launch date (UTC)
1999-05-10 (27 years ago)
Launch vehicle
Unknown
Launch site
Taiyaun Space Center, China (TSC)
Object type
Payload
Rocket body
Debris
Shape & HBR
Unknown shape, 0.1 m
Radar Cross Section
Medium (>0.1 m² and <1 m²)

Expand to show TLE details & history
Last TLE update: 2 days ago

TLE from 2 days ago
0 FENGYUN 1C DEB
1 31725U 99025CDY 26236.23092942  .00000908  00000-0  15073-2 0  9998
2 31725  99.1787  52.6203 0688440 122.6943 244.2465 12.79830483897361
Epoch: 2026-08-24T05:32Z
TLE epoch observation values (Epoch: 2026-08-24T05:32:32.301Z)
Latitude
-0.0001°
Longitude
-3.02988°
Altitude
1,604.201 km
Speed
6.948 km/s
True Right ascension
03h 30m 28s
True Declination
0° 00' 00"
Sunlit
Object was in daylight at epoch
Visualization orbit readout
Latitude
Unknown
Longitude
Unknown
Altitude
Unknown
Speed
Unknown
Apparent Right ascension
Unknown
Apparent Declination
Unknown
Sunlit
N/A
Visualization observer readout
Local Sidereal Time
01:15:30
Azimuth
Unknown
Elevation
Unknown
Doppler factor
Unknown
Orbital elements
Apogee altitude
1,870.817 km
Perigee altitude
808.19 km
Semi-major axis
7,717.641 km
Eccentricity
0.06884
Inclination
99.1787°
RAAN
52.6203°
Arg. of periapsis
122.6943°
True anomaly
237.41375°
Mean anomaly
244.2465°
Eccentric anomaly
240.80318°
Mean motion
3.20123 °/min
Orbital period
112.46 mins
BSTAR
0.0015073
Loading maneuver chart data...
Computing Atmospheric mass density...
Loading historical data...
Loading historical data...
Loading historical data...
Loading historical data...
Loading historical data...
Loading historical data...
Loading historical data...

Documentation

Showing up to 5 results
|